Orbital Elements at Epoch 2459200.5 (2020-Dec-17.0) TDB
Reference: JPL 16 (heliocentric ecliptic J2000)
Element | Value | Uncertainty (1-sigma) | Units |
e | .1458849438433996 | 5.7157e-08 | |
a | 2.767675104144619 | 2.0888e-08 | au |
q | 2.363912976999706 | 1.488e-07 | au |
i | .5129199846983946 | 4.5146e-06 | deg |
node | 256.2443272508651 | 0.00058133 | deg |
peri | 259.7489007854585 | 0.00058162 | deg |
M | 183.0673899885904 | 2.1816e-05 | deg |
tp | 2460027.063970931367 (2023-Mar-23.56397093) | 0.00010845 | TDB |
period | 1681.787373826134 4.60 | 1.9039e-05 5.213e-08 | d yr |
n | .2140579752248856 | 2.4233e-09 | deg/d |
Q | 3.171437231289532 | 2.3935e-08 | au |
|
| | Orbit Determination Parameters
Additional Information
|